Overview Statistics Trail Chart Weather Telemetry Raw packets
 

This is the latest recevied weather packets stored in our database for station/object N1YZ. If no packets are shown the sender has not sent any weather packets the latest 10 day(s).

<< 73 74 75 76 77 78 79 >>
Time Temp. Humidity Pressure Rain* Wind** Luminosity Snow
1788129584 31.11° C 66% 1036.9 hPa 0 mm - 23 W/m² -
1788129281 30.56° C 65% 1036.6 hPa 0 mm - 24 W/m² -
1788128979 30.56° C 66% 1036.8 hPa 0 mm - 26 W/m² -
1788128675 30.56° C 68% 1036.8 hPa 0 mm - 29 W/m² -
1788128371 30.56° C 69% 1036.8 hPa 0 mm - 30 W/m² -
1788128066 31.11° C 65% 1036.8 hPa 0 mm - 31 W/m² -
1788127762 30.56° C 66% 1036.7 hPa 0 mm - 34 W/m² -
1788127456 30.56° C 67% 1036.8 hPa 0 mm - 41 W/m² -
1788127154 30.56° C 68% 1036.8 hPa 0 mm - 50 W/m² -
1788126849 31.11° C 65% 1036.7 hPa 0 mm - 47 W/m² -
1788126544 31.11° C 65% 1036.7 hPa 0 mm - 44 W/m² -
1788126239 31.11° C 63% 1037 hPa 0 mm - 44 W/m² -
1788125933 31.11° C 64% 1036.9 hPa 0 mm - 64 W/m² -
1788125629 31.11° C 64% 1037.1 hPa 0 mm - 29 W/m² -
1788125324 31.11° C 66% 1037.1 hPa 0 mm - 57 W/m² -
1788125020 31.11° C 64% 1037.1 hPa 0 mm - 58 W/m² -
1788124719 31.11° C 64% 1037 hPa 0 mm - 53 W/m² -
1788124413 31.67° C 69% 1037.1 hPa 0 mm - 56 W/m² -
1788124109 31.11° C 67% 1037 hPa 0 mm - 55 W/m² -
1788123808 31.11° C 67% 1037.4 hPa 0 mm - 51 W/m² -
1788123507 31.67° C 65% 1037.3 hPa 0 mm - 44 W/m² -
1788123206 31.67° C 64% 1037.4 hPa 0 mm - 81 W/m² -
1788122901 31.67° C 64% 1037.6 hPa 0 mm - 71 W/m² -
1788122600 31.67° C 65% 1037.3 hPa 0 mm - 70 W/m² -
1788122296 31.11° C 64% 1037.3 hPa 0 mm - 94 W/m² -

* Rain latest hour (hover to see other rain measurements)
** Current wind speed in m/s (hover to see current wind gust speed)